Tracking 23731 objects as of 26-Sep-2021
HD Live streaming from Space Station
objects crossing your sky now

STARLINK-1456

Track STARLINK-1456 now!
10-day predictions
STARLINK-1456 is classified as:


NORAD ID: 45673
Int'l Code: 2020-035S
Perigee: 552.9 km
Apogee: 555.8 km
Inclination: 53.1 °
Period: 95.6 minutes
Semi major axis: 6925 km
RCS: Unknown
Launch date: June 4, 2020
Source: United States (US)
Launch site: AIR FORCE EASTERN TEST RANGE (AFETR)
aabbcc
Your satellite tracking list
Your tracking list is empty




NASA's NSSDC Master Catalog

Two Line Element Set (TLE):
1 45673U 20035S   21268.96981577  .00001010  00000-0  86707-4 0  9990
2 45673  53.0550 164.7707 0002098 105.8838 254.2382 15.06398298 73297
Source of the keplerian elements: AFSPC